{"data":{"norad_id":64450,"intl_designator":"2025-130N","name":"STARLINK-34361","alt_names":[],"object_type":"PAYLOAD","status":"ACTIVE","operator":null,"country":"US","launch_date":"2025-06-18","launch_site_code":"AFETR","launch_vehicle":null,"mission":null,"orbit_class":"UNKNOWN","rcs_meters":null,"size_class":null,"mass_kg":null,"dimensions":null,"purposes":["comms"],"wikipedia_slug":null,"has_3d_model":false,"image_url":null,"decayed_at":null,"tle_current":{"epoch":"2026-05-25T03:05:53.462400Z","epoch_age_seconds":60026,"freshness":"FRESH","line1":"1 64450U 25130N   26145.12909100  .00022438  00000+0  67307-3 0  9994","line2":"2 64450  53.1611  92.9597 0001859  97.1465 262.9749 15.34406671 53581","mean_motion":15.34406671,"eccentricity":0.0001859,"inclination_deg":53.1611,"raan_deg":92.9597,"arg_perigee_deg":97.1465,"mean_anomaly_deg":262.9749,"bstar":0.00067307,"rev_number":5358,"period_min":93.847350067993,"perigee_km":461.41170414638,"apogee_km":463.95512117581,"semimajor_km":6840.8204126611,"source":"CELESTRAK","updated_at":"2026-05-25T13:38:20.450037Z"}}}